Hourly Data Report for January 05, 2019

TORONTO CITY
ONTARIO
Current Station Operator: ECCC - MSC

43°40'00.000" N
79°24'00.000" W
112.50 m
6158355
71508
XTO

Download Data

Hourly Data (January 2019)
Hourly Data Report for January 5, 2019
TIME
LST
Temp Definition
°C
Dew Point Definition
°C
Rel Hum Definition
%
Precip. Amount Definition
mm

Wind Dir Definition
10's deg

Wind Spd Definition
km/h
Visibility Definition
km
Stn Press Definition
kPa
Hmdx Definition


Wind Chill Definition


Weather Definition


00:00 2.6 -1.6 74 0.0 LegendMM LegendMM   99.04     LegendNANA
01:00 2.8 -1.2 75 0.0 LegendMM LegendMM   99.01     LegendNANA
02:00 2.6 -1.0 77 0.0 LegendMM LegendMM   99.00     LegendNANA
03:00 2.0 -1.3 79 0.0 LegendMM LegendMM   99.03     LegendNANA
04:00 1.6 -1.1 82 0.0 LegendMM LegendMM   99.01     LegendNANA
05:00 1.5 -1.2 82 0.0 LegendMM LegendMM   99.01     LegendNANA
06:00 1.8 -0.7 83 0.0 LegendMM LegendMM   99.06     LegendNANA
07:00 2.2 -0.3 83 0.0 LegendMM LegendMM   99.12     LegendNANA
08:00 2.3 -0.4 83 0.0 LegendMM LegendMM   99.11     LegendNANA
09:00 2.4 -0.8 80 0.0 LegendMM LegendMM   99.18     LegendNANA
10:00 2.5 -1.2 77 0.0 LegendMM LegendMM   99.25     LegendNANA
11:00 2.8 -1.6 73 0.0 LegendMM LegendMM   99.24     LegendNANA
12:00 3.2 -1.1 73 0.0 LegendMM LegendMM   99.20     LegendNANA
13:00 3.2 -1.1 73 0.0 LegendMM LegendMM   99.21     LegendNANA
14:00 3.2 -0.7 76 0.0 LegendMM LegendMM   99.21     LegendNANA
15:00 3.9 -1.1 70 0.0 LegendMM LegendMM   99.28     LegendNANA
16:00 3.6 -0.8 73 0.0 LegendMM LegendMM   99.29     LegendNANA
17:00 2.0 -1.0 81 0.0 LegendMM LegendMM   99.27     LegendNANA
18:00 1.6 -1.1 82 0.0 LegendMM LegendMM   99.31     LegendNANA
19:00 1.4 -1.5 81 0.0 LegendMM LegendMM   99.34     LegendNANA
20:00 1.7 -1.1 82 0.0 LegendMM LegendMM   99.33     LegendNANA
21:00 2.0 -0.7 83 0.0 LegendMM LegendMM   99.38     LegendNANA
22:00 2.3 -0.3 83 0.0 LegendMM LegendMM   99.33     LegendNANA
23:00 2.6 0.2 84 0.0 LegendMM LegendMM   99.31     LegendNANA

Notes on Data Quality.

Legend

  • E = Estimated
  • M = Missing
  • NA = Not Available*
  • [empty] = Indicates an unobserved value
Date modified: